Location: Home
(42.5358°N, 72.7383°W)
Time: 05:52:10
(UTC-05:00)

S-56A Canister/Altair - Pass Details

Date: 01 December 2021
Orbit: 633 x 2499 km, 38.9° (Epoch: 19 January)

Event Time Altitude Azimuth Distance (km) Brightness Sun altitude
Exits shadow 05:54:57 11° 256° (WSW) 2,033 9.2 -12.0°
Maximum altitude 05:58:09 21° 209° (SSW) 1,436 8.8 -11.4°
Drops below altitude 10° 06:01:30 10° 159° (SSE) 2,005 10.3 -10.8°
Sets 06:04:15 0° 143° (SE) 2,958 11.6 -10.4°
